[[{"header":{"parameterUnit":"m.s-1","parameterCategory":1,"la1":30.2991,"la2":30.254,"lo1":-89.0895,"lo2":-89.0444,"dy":0.0017,"dx":0.0017,"nx":28,"ny":28,"refTime":"2025-07-27T09:00:00:Z","depth":0,"parameterNumber":2,"parameterNumberName":"U-component_of_WINDS"},"data":[0,0,0,0,0,0,0,0,0,0,0,0,0,0,0,0,0,0,0,0,0,0,0,0,0,0,0,0,0,0,0,0,0,0,0,0,0,0,0,0,0,0,0,0,0,0,0,0,0,0,0,0,0,0,0,0,0,0,3.8497,3.8498,0,3.8617,3.8618,3.862,3.8547,3.8543,3.854,3.8536,3.8662,3.8668,3.8675,0,0,0,0,0,0,0,0,0,0,0,0,0,3.8205,3.8211,3.8497,3.8498,3.85,3.8617,3.8618,3.862,3.8547,3.8543,3.8539,3.8535,3.866,3.8668,3.8675,0,0,0,0,0,0,0,0,0,0,0,0,0,3.8329,3.8213,3.8497,3.8478,3.8477,3.8616,3.8618,3.8621,3.8548,3.8543,3.8538,3.8533,3.8657,3.8667,3.8677,3.8842,0,0,3.8707,3.8711,0,0,0,0,0,0,0,0,3.8323,3.834,3.8479,3.8479,3.8479,3.8561,3.8561,3.8695,3.855,3.8521,3.8536,3.853,3.8633,3.8644,3.8678,3.8848,3.8853,3.8708,3.8714,3.8718,3.8721,0,0,0,0,0,0,0,3.8314,3.8335,3.8544,3.8481,3.8481,3.8463,3.8475,3.8586,3.8605,3.8523,3.8518,3.8533,3.8632,3.8669,3.8681,3.8855,3.8707,3.8716,3.8722,3.8726,3.9165,3.917,0,0,0,0,0,0,3.8307,3.8328,3.8541,3.8548,3.8386,3.8473,3.8486,3.854,3.8604,3.8608,3.8538,3.853,3.8655,3.8669,3.8685,3.8882,3.8718,3.8727,3.8733,3.9159,3.9166,3.9172,0,0,0,0,0,0,3.8301,3.8326,3.8536,3.8437,3.8462,3.8483,3.8545,3.8545,3.8582,3.8614,3.8617,3.8572,3.8651,3.8671,3.8803,3.8885,3.8731,3.874,3.9152,3.9161,3.9169,3.9277,0,0,0,0,0,0,3.8293,3.8325,3.8388,3.8439,3.8468,3.8652,3.855,3.8552,3.8599,3.859,3.8648,3.8652,3.8649,3.8789,3.8813,3.8896,3.8748,3.9145,3.9156,3.9166,3.9267,3.9289,3.9307,0,0,0,0,0,3.8282,3.8414,3.8391,3.8417,3.8547,3.8657,3.8673,3.8666,3.8606,3.867,3.869,3.8651,3.8872,3.8803,3.8829,3.8917,3.914,3.9153,3.9165,3.9257,3.9284,3.9307,0,0,0,0,0,0,3.8374,3.8421,3.8396,3.8548,3.8599,3.8644,3.8724,3.8695,3.8764,3.8752,3.8741,3.8754,3.8892,3.8917,3.8839,3.9079,3.8997,3.9016,3.9057,3.9083,3.9103,3.9094,3.8756,0,0,0,0,0,3.8411,3.8496,3.8533,3.8664,3.869,3.8703,3.8751,3.874,3.8793,3.8814,3.8844,3.8897,3.8978,3.9032,3.9109,3.927,3.9281,3.9343,3.9363,3.938,3.9396,3.9482,3.9509,3.9214,3.9214,3.9214,0,0,3.849,3.8526,3.8581,3.8683,3.8721,3.8809,3.8722,3.8819,3.8884,3.8829,3.8955,3.8979,3.9037,3.9184,3.925,3.9209,3.948,3.9396,3.9409,3.9417,3.9498,3.9526,3.9551,3.9223,3.9221,3.922,0,0,3.8679,3.8715,3.8827,3.8867,3.8925,3.8932,3.8959,3.9009,3.9023,3.9148,3.9108,3.9186,3.9327,3.9369,3.941,3.9613,3.9579,3.9638,3.9745,3.9829,3.9852,3.9872,3.9944,3.997,3.9654,3.9655,3.9655,0,3.877,3.8901,3.8889,3.8989,3.9034,3.8987,3.91,3.914,3.9221,3.9253,3.9207,3.9381,3.9417,3.9572,3.9622,3.9656,3.9686,3.9632,3.9849,3.987,3.9889,3.9957,3.9984,3.9662,3.9661,3.966,3.9659,0,3.9009,3.91,3.9184,3.9262,3.9317,3.9423,3.9427,3.9485,3.9469,3.9481,3.9609,3.9651,3.9734,3.977,3.9757,3.9924,3.9897,3.985,3.9767,3.9924,3.9987,4.0014,3.9671,3.9669,3.9667,3.9665,0,0,3.926,3.9328,3.9359,3.9393,3.9453,3.9524,3.9627,3.9708,3.9757,3.9814,3.99,4.002,3.9976,4.0022,4.0013,4.0086,4.0243,4.003,4.0032,4.0068,4.0428,4.0462,4.0492,4.0221,4.0226,4.0229,4.0422,0,3.9451,3.9631,3.9623,3.9792,3.9875,3.9831,3.9921,3.9968,3.9982,4.0055,4.007,4.0155,4.0092,4.0119,4.0189,4.0209,4.0315,4.0195,4.0301,4.0304,4.0287,4.0526,4.0562,4.0742,4.0447,4.0452,4.0455,0,3.9699,3.9763,3.994,3.9986,4.002,4.0102,4.0174,4.0244,4.0296,4.0301,4.0351,4.033,4.0434,4.0348,4.0492,4.0411,4.0453,4.0469,4.0476,4.0485,4.0389,4.054,4.08,4.0827,4.0494,4.0491,4.0488,0,3.9863,3.9993,4.0115,4.0146,4.0203,4.0261,4.0287,4.0334,4.0382,4.0446,4.0477,4.0552,4.0593,4.0652,4.0651,4.0589,4.0797,4.0711,4.0803,4.0804,4.0849,4.0846,4.1118,4.0878,4.0878,4.0877,4.0877,0,4.0077,4.0187,4.0189,4.0264,4.0385,4.0375,4.0495,4.0516,4.0557,4.0635,4.0602,4.0676,4.0671,4.0746,4.0746,4.0865,4.0884,4.089,4.0889,4.0893,4.0892,4.0921,4.0908,4.0884,4.0883,4.0881,4.088,0,4.0281,4.0287,4.0416,4.0459,4.0472,4.056,4.0596,4.0668,4.0678,4.0777,4.08,4.0817,4.0903,4.0908,4.1008,4.1008,4.1152,4.1137,4.1134,4.1131,4.1223,4.1214,4.1522,4.1561,4.1297,4.1299,4.1301,0,4.0417,4.05,4.0551,4.06,4.063,4.071,4.0759,4.0751,4.0803,4.0867,4.0931,4.1014,4.108,4.122,4.1241,4.1317,4.1304,4.1406,4.1315,4.1316,4.1304,4.1299,4.1306,4.1424,4.1427,4.1429,4.1431,0,4.0658,4.0656,4.0727,4.0799,4.0858,4.0914,4.0967,4.1009,4.1008,4.1068,4.1155,4.1206,4.1307,4.139,4.1464,4.1491,4.1462,4.146,4.1485,4.149,4.1484,4.1487,4.1181,4.1453,4.1451,4.1449,4.1448,4.1447,4.0831,4.0902,4.0948,4.1028,4.1066,4.1116,4.1184,4.1202,4.1275,4.1356,4.1347,4.1444,4.1492,4.1588,4.1621,4.1696,4.1661,4.1698,4.1707,4.1716,4.1725,4.1472,4.171,4.1709,4.1709,4.1708,4.1708,0,4.1069,4.1096,4.117,4.1243,4.1306,4.1271,4.1327,4.1382,4.1467,4.1514,4.1579,4.1678,4.1758,4.1785,4.1862,4.1917,4.1905,4.1938,4.1933,4.194,4.1753,4.1723,4.1946,4.1946,4.1946,4.1946,4.1945,4.1945,4.12,4.1318,4.1321,4.1457,4.1484,4.1577,4.1612,4.1657,4.1695,4.1807,4.1872,4.1889,4.1928,4.2007,4.2078,4.2084,4.2113,4.2152,4.2152,4.1977,4.1953,4.193,4.1902,4.2158,4.2159,4.2332,4.2333,4.2334]},{"header":{"parameterUnit":"m.s-1","parameterCategory":1,"la1":30.2991,"la2":30.254,"lo1":-89.0895,"lo2":-89.0444,"dy":0.0017,"dx":0.0017,"nx":28,"ny":28,"refTime":"2025-07-27T09:00:00:Z","depth":0,"parameterNumber":3,"parameterNumberName":"V-component_of_WINDS"},"data":[0,0,0,0,0,0,0,0,0,0,0,0,0,0,0,0,0,0,0,0,0,0,0,0,0,0,0,0,0,0,0,0,0,0,0,0,0,0,0,0,0,0,0,0,0,0,0,0,0,0,0,0,0,0,0,0,0,0,0.5669,0.5669,0,0.5662,0.5662,0.5662,0.5627,0.5626,0.5625,0.5624,0.5618,0.5619,0.5619,0,0,0,0,0,0,0,0,0,0,0,0,0,0.5652,0.5653,0.5669,0.5669,0.5669,0.5662,0.5662,0.5662,0.5627,0.5626,0.5625,0.5624,0.5618,0.5619,0.5619,0,0,0,0,0,0,0,0,0,0,0,0,0,0.5654,0.5653,0.5669,0.5651,0.5649,0.5663,0.5662,0.5662,0.5627,0.5626,0.5625,0.5623,0.5618,0.5619,0.562,0.5651,0,0,0.5622,0.5623,0,0,0,0,0,0,0,0,0.5654,0.5655,0.5654,0.5652,0.565,0.5644,0.5654,0.5658,0.5627,0.5636,0.5624,0.5623,0.5628,0.5628,0.5629,0.565,0.565,0.5622,0.5623,0.5623,0.5624,0,0,0,0,0,0,0,0.5654,0.5655,0.5667,0.5654,0.5652,0.5643,0.5642,0.5655,0.5639,0.5635,0.5632,0.5632,0.5627,0.5629,0.5629,0.565,0.5622,0.5623,0.5624,0.5624,0.5695,0.5696,0,0,0,0,0,0,0.5656,0.5655,0.5667,0.5667,0.5649,0.5644,0.5643,0.5647,0.5639,0.5636,0.5633,0.563,0.5628,0.5628,0.5629,0.5664,0.5623,0.5624,0.5625,0.5694,0.5695,0.5697,0,0,0,0,0,0,0.5656,0.5658,0.5667,0.566,0.566,0.5646,0.5651,0.5648,0.565,0.5637,0.5634,0.5638,0.5627,0.5627,0.5645,0.5663,0.5625,0.5626,0.5692,0.5694,0.5696,0.5735,0,0,0,0,0,0,0.5656,0.5658,0.567,0.566,0.5661,0.5684,0.5652,0.5649,0.5651,0.5648,0.5641,0.5639,0.5626,0.5644,0.5646,0.5664,0.5626,0.569,0.5693,0.5695,0.5732,0.5738,0.5743,0,0,0,0,0,0.5655,0.5682,0.567,0.5672,0.5676,0.5685,0.5686,0.567,0.5653,0.5665,0.5656,0.5639,0.5661,0.5646,0.5648,0.5666,0.5689,0.5692,0.5695,0.5729,0.5737,0.5743,0,0,0,0,0,0,0.5694,0.568,0.5668,0.5692,0.569,0.5679,0.5694,0.5678,0.5681,0.5678,0.5658,0.5657,0.5678,0.5674,0.5658,0.5695,0.5672,0.5675,0.5697,0.5704,0.571,0.571,0.5627,0,0,0,0,0,0.5705,0.5714,0.5701,0.5724,0.5724,0.5709,0.5712,0.57,0.5698,0.5697,0.569,0.5688,0.5694,0.5699,0.5704,0.5731,0.5728,0.5744,0.575,0.5755,0.5758,0.5771,0.5777,0.5706,0.5706,0.5706,0,0,0.5729,0.5722,0.5729,0.5732,0.5729,0.5738,0.5708,0.572,0.5727,0.5699,0.5715,0.5709,0.5706,0.5728,0.5738,0.5726,0.5777,0.5758,0.5762,0.5763,0.5774,0.5781,0.5787,0.5708,0.5708,0.5708,0,0,0.5777,0.5773,0.5791,0.5788,0.5784,0.5773,0.5778,0.5769,0.5764,0.578,0.5758,0.5766,0.5777,0.5775,0.5776,0.5821,0.5805,0.5824,0.5853,0.5865,0.5871,0.5876,0.5891,0.5897,0.5827,0.5827,0.5827,0,0.5807,0.582,0.5802,0.5815,0.5816,0.579,0.5807,0.5806,0.5804,0.5805,0.5791,0.5804,0.58,0.5821,0.5832,0.5833,0.5837,0.5825,0.5872,0.5876,0.5881,0.5895,0.5901,0.5829,0.5829,0.5829,0.5828,0,0.5857,0.5867,0.5882,0.5879,0.5882,0.5897,0.5881,0.5886,0.5873,0.5864,0.588,0.5873,0.5876,0.588,0.5868,0.5899,0.5892,0.5875,0.5851,0.589,0.5903,0.5909,0.5832,0.5832,0.5831,0.583,0,0,0.5931,0.5917,0.5922,0.592,0.5913,0.592,0.5933,0.5935,0.594,0.5938,0.5949,0.5958,0.5943,0.5943,0.593,0.5942,0.5977,0.5923,0.5923,0.5933,0.6009,0.6021,0.6028,0.5966,0.5967,0.5967,0.6009,0,0.5976,0.5998,0.5981,0.6006,0.6014,0.5989,0.6,0.5997,0.5988,0.5993,0.5984,0.5991,0.597,0.597,0.598,0.597,0.5992,0.5967,0.5975,0.5975,0.5977,0.6035,0.6049,0.6088,0.6014,0.6015,0.6016,0,0.6032,0.6033,0.6058,0.6047,0.605,0.6061,0.6061,0.6066,0.6061,0.6054,0.6054,0.6038,0.605,0.6026,0.6042,0.6025,0.6027,0.6023,0.6024,0.6024,0.5998,0.6037,0.6101,0.6107,0.6024,0.6023,0.6023,0,0.6083,0.609,0.6105,0.6104,0.6093,0.61,0.6096,0.6089,0.6091,0.6091,0.6092,0.6094,0.6094,0.6096,0.608,0.6064,0.6097,0.6073,0.6092,0.6092,0.61,0.61,0.6165,0.6102,0.6102,0.6102,0.6101,0,0.6135,0.6152,0.6127,0.6137,0.6155,0.6135,0.6152,0.6145,0.6139,0.6147,0.6125,0.6133,0.6112,0.6117,0.6105,0.6119,0.612,0.6114,0.6111,0.6116,0.6117,0.6117,0.6114,0.6103,0.6103,0.6102,0.6102,0,0.6195,0.6179,0.6194,0.6181,0.6178,0.6192,0.618,0.6189,0.6178,0.6188,0.6189,0.6173,0.6177,0.6162,0.6164,0.6156,0.6177,0.6169,0.6179,0.6176,0.6196,0.6194,0.6264,0.6271,0.6203,0.6204,0.6205,0,0.6229,0.6241,0.6228,0.6232,0.6228,0.6234,0.6235,0.6216,0.6218,0.6212,0.6221,0.6224,0.6225,0.6234,0.6222,0.6224,0.6215,0.624,0.6216,0.622,0.6215,0.6215,0.6215,0.6245,0.6246,0.6246,0.6247,0,0.6291,0.6283,0.6286,0.6285,0.6287,0.6286,0.6284,0.6288,0.6267,0.627,0.6275,0.6276,0.6277,0.628,0.6279,0.6274,0.6257,0.6254,0.6259,0.6264,0.6269,0.6266,0.6192,0.6253,0.6252,0.6252,0.6252,0.6251,0.6339,0.6348,0.634,0.6344,0.6339,0.6337,0.6344,0.6334,0.6337,0.6336,0.6325,0.6331,0.6324,0.6321,0.6317,0.6322,0.631,0.6317,0.6318,0.632,0.6323,0.6268,0.6321,0.6321,0.6321,0.6321,0.6321,0,0.64,0.6393,0.6396,0.6393,0.6396,0.6378,0.6374,0.6378,0.6383,0.6378,0.638,0.6384,0.6386,0.6374,0.6375,0.638,0.6372,0.6381,0.638,0.6379,0.6334,0.633,0.6387,0.6387,0.6387,0.6387,0.6387,0.6387,0.6432,0.6445,0.6436,0.6447,0.644,0.6446,0.6445,0.6442,0.6438,0.6444,0.6445,0.6437,0.6429,0.6428,0.6429,0.6426,0.6427,0.6438,0.6432,0.6389,0.6383,0.6377,0.6373,0.6438,0.6438,0.6476,0.6477,0.6477]}]]